Temperature
23 23 22 22 22 21 21 21 20 20 20 20 20 20 19 19 19 19 19 19 19 19 19 19 19 19 19 19 19 19 19 19 19 19 19 19 19 19 19 19 19 19 19
23 23 22 22 22 21 21 21 20 20 20 20 20 20 19 19 19 19 19 19 19 19 19 19 19 19 19 19 19 19 19 19 19 19 19 19 19 19 19 19 19 19 19
23 23 22 22 22 22 21 21 21 20 20 20 20 19 19 19 19 19 19 19 19 19 19 19 19 19 19 19 19 19 19 19 19 19 18 18 18 19 19 19 19 19 19
23 23 23 22 22 22 22 21 21 20 20 20 20 20 20 19 20 19 19 19 19 19 19 19 19 19 19 19 19 19 18 18 18 18 18 18 18 18 18 19 19 19 19
23 23 23 23 22 22 22 21 21 21 20 20 20 20 20 20 20 19 19 19 19 19 19 19 19 19 19 19 19 19 18 18 18 18 18 18 18 18 18 18 19 19 19
23 23 23 23 22 22 22 21 21 21 21 20 20 20 20 20 19 19 19 19 19 19 19 19 19 19 19 19 19 18 18 18 18 18 18 18 18 18 18 18 18 18 18
23 23 23 22 22 22 22 22 21 21 20 20 20 20 20 20 20 19 19 19 19 19 19 19 19 19 19 19 19 18 18 18 18 18 18 18 18 18 18 18 18 18 18
23 23 23 22 22 22 22 22 21 21 21 20 20 20 20 20 20 19 19 19 19 19 19 19 19 19 19 18 18 18 18 18 18 18 18 18 18 18 18 18 17 17 18
23 23 23 22 22 22 22 22 21 21 21 20 20 20 20 20 20 19 19 19 19 19 19 19 19 19 18 18 18 18 18 18 18 18 18 18 17 17 17 17 17 17 17
23 23 23 23 22 22 22 21 21 21 21 21 20 20 20 20 19 19 19 19 19 19 19 19 19 19 19 18 18 18 18 18 18 17 17 17 17 17 17 17 17 17 17
23 23 22 22 22 22 21 21 21 21 21 20 20 20 20 20 20 19 19 19 19 19 19 19 19 18 18 18 18 18 18 18 17 17 17 17 17 17 17 17 17 17 17
23 23 22 22 22 21 21 21 21 21 20 20 20 19 19 19 19 19 19 19 18 18 18 18 18 18 18 18 18 17 17 17 17 17 17 17 17 17 17 17 17 17 16
23 22 22 22 21 21 21 21 21 20 20 20 20 19 19 19 19 19 18 18 18 18 18 18 18 18 18 17 17 17 17 17 17 17 17 17 17 17 17 16 16 16 16
23 22 22 21 22 21 21 21 21 20 20 20 20 19 19 19 19 18 18 18 18 18 17 17 17 17 17 17 17 17 17 17 16 16 16 16 16 16 16 16 16 16 16
22 22 22 21 21 21 21 21 20 20 20 20 19 19 19 19 18 18 18 17 17 17 17 17 17 17 16 16 16 16 16 16 16 16 16 16 16 16 16 16 16 15 15
22 22 22 21 21 21 21 21 20 20 20 19 19 19 19 18 18 18 17 17 17 17 17 16 16 16 16 16 16 16 16 16 16 16 15 15 15 15 15 15 15 15 15
22 21 21 21 21 21 21 20 20 20 20 19 19 18 18 18 18 17 17 17 16 16 16 16 16 16 16 16 15 15 15 15 15 15 15 15 15 15 15 15 15 15 15
22 21 21 21 21 21 20 20 20 19 19 19 18 18 18 17 17 17 17 16 16 16 16 16 15 15 15 15 15 15 15 15 15 14 14 14 14 14 14 14 14 14 14
22 22 21 21 21 20 20 20 19 19 19 18 18 18 17 17 17 16 16 16 16 16 15 15 15 15 15 15 14 14 14 14 14 14 14 14 14 14 14 14 14 14 14
22 21 21 21 20 20 19 19 19 18 18 18 18 17 17 17 16 16 16 15 15 15 15 15 15 14 14 14 14 14 14 14 14 14 13 13 13 13 13 13 13 13 13
21 21 21 20 20 19 19 19 18 18 18 18 17 17 17 16 16 16 15 15 15 15 14 14 14 14 14 14 14 14 13 13 13 13 13 13 13 13 13 13 13 13 13
20 20 20 20 19 19 18 18 18 18 17 17 17 17 16 16 15 15 15 15 14 14 14 14 14 13 13 13 13 13 13 13 13 13 13 12 12 12 12 12 12 12 12
20 20 20 19 18 18 18 18 17 17 17 16 16 16 16 15 15 15 15 14 14 14 14 13 13 13 13 13 13 13 12 12 12 12 12 12 12 12 12 12 12 12 12
19 19 19 18 18 18 17 17 17 17 16 16 16 15 15 15 15 14 14 14 14 13 13 13 13 13 13 12 12 12 12 12 12 12 12 12 12 12 12 12 12 12 12
18 18 18 18 18 17 17 17 16 16 16 16 15 15 15 14 14 14 14 14 13 13 13 13 13 12 12 12 12 12 12 12 11 11 11 11 11 11 11 11 11 11 11
18 18 17 17 17 17 17 16 16 16 16 16 15 15 14 14 14 14 13 13 13 13 13 13 12 12 12 12 12 12 11 11 11 11 11 11 11 11 11 11 10 10 11
Wind_Speed
11 12 13 13 12 10 10 10 9 8 6 4 3 3 2 2 2 3 5 6 5 5 4 2 2 1 1 2 2 1 1 1 1 1 3 4 3 3 3 3 3 5 7
9 11 12 13 12 12 11 10 10 9 7 5 4 3 3 3 3 3 4 6 6 5 5 4 3 2 1 1 1 1 0 1 0 1 1 3 4 3 2 2 2 3 4
13 13 13 12 12 12 12 11 9 9 8 6 3 2 1 0 1 1 2 4 6 5 4 4 3 3 2 2 2 1 2 2 2 1 3 2 2 3 3 2 2 3 2
11 12 13 12 13 12 11 9 9 8 7 7 6 5 4 4 4 3 3 3 4 4 5 4 3 3 3 2 2 2 2 2 2 1 1 3 4 2 3 3 3 3 2
12 12 12 12 11 11 11 10 9 9 8 7 8 7 5 4 2 2 2 2 2 3 4 4 4 4 3 3 3 3 2 2 2 2 1 1 1 2 2 3 4 3 3
11 10 9 8 8 8 9 9 8 8 8 8 7 7 7 5 3 3 3 2 2 2 3 3 3 3 3 4 4 3 3 2 2 2 1 2 1 2 2 3 3 3 3
10 9 8 8 7 8 9 9 8 7 7 7 7 7 7 6 5 4 4 3 2 2 3 3 3 3 3 4 4 3 2 2 1 2 2 2 2 2 3 2 3 3 3
9 9 10 10 9 9 8 9 8 7 7 7 6 5 5 4 4 4 3 3 3 3 3 2 2 2 2 3 2 2 2 2 2 2 2 2 2 2 2 2 2 2 2
9 9 9 9 9 8 7 8 8 6 6 6 5 4 5 4 4 3 3 3 2 2 2 2 2 2 2 2 2 1 2 1 1 2 2 2 2 1 2 2 2 3 3
8 9 8 8 8 8 7 6 6 7 6 5 5 5 4 3 3 3 3 3 2 2 2 2 2 2 2 2 1 1 1 1 1 1 1 2 2 2 1 1 2 3 4
9 8 8 7 7 7 8 7 6 5 5 5 5 4 3 3 2 3 3 3 2 2 2 2 2 2 2 1 1 1 1 1 1 1 1 2 2 2 2 1 1 1 2
7 8 8 7 6 6 7 7 6 5 5 5 4 4 3 2 2 3 3 2 2 2 2 2 2 2 1 1 1 1 0 0 1 2 1 2 2 2 2 2 2 2 2
6 6 7 8 8 7 7 7 6 6 5 5 5 4 3 3 2 2 2 2 2 1 1 1 1 1 1 1 1 1 1 1 1 2 2 3 2 2 2 2 2 2 2
8 8 7 7 7 7 7 7 6 6 7 6 6 5 5 4 3 2 2 1 2 2 1 1 1 1 1 1 1 1 1 1 1 2 2 2 2 3 3 3 3 2 2
7 7 7 7 6 5 6 6 6 6 6 6 5 5 5 4 3 2 2 1 1 2 1 1 1 1 1 1 1 1 1 1 2 3 3 3 3 3 2 2 2 2 1
9 8 7 7 7 6 6 6 6 6 6 6 5 4 4 3 3 2 2 1 1 1 1 1 1 1 1 2 2 1 1 1 2 3 3 3 2 3 3 4 3 2 2
11 11 10 9 9 8 7 7 6 5 5 5 4 4 4 3 3 2 2 1 1 0 1 1 1 1 2 2 2 2 1 1 2 2 2 3 3 3 3 4 4 4 4
10 10 9 8 8 7 6 6 5 6 5 5 4 3 3 3 3 2 2 2 2 2 2 2 2 2 2 2 2 2 1 1 2 2 2 3 4 3 3 3 3 4 4
8 8 9 8 7 7 7 6 5 5 5 5 4 4 4 3 3 3 3 2 2 2 2 2 2 2 3 2 2 2 1 2 3 3 2 3 4 5 4 2 3 5 6
7 6 7 7 7 6 7 8 6 6 6 5 5 4 4 4 3 3 2 2 2 2 2 1 2 2 2 3 2 2 1 2 3 3 3 5 5 6 4 2 3 5 6
6 7 8 7 7 6 7 7 6 6 5 5 4 4 4 4 4 3 2 2 1 1 1 1 2 2 2 2 2 2 1 3 3 3 4 4 6 6 5 4 4 6 5
5 6 6 6 5 6 7 6 5 4 4 4 4 4 3 3 3 2 2 1 2 1 1 1 2 2 2 1 2 2 2 2 2 3 4 4 6 7 6 4 5 5 3
5 5 7 6 5 5 7 7 5 5 5 5 4 3 3 2 2 3 2 1 2 2 2 1 1 2 2 2 2 2 2 2 2 3 5 6 6 6 5 5 5 3 1
4 5 7 7 5 5 5 6 6 5 6 5 4 3 3 2 2 2 2 2 2 2 2 2 2 2 2 2 2 2 3 3 3 3 4 5 5 4 4 4 3 2 2
3 4 6 6 5 5 4 4 5 5 5 4 4 3 3 3 2 2 1 2 3 4 4 4 3 3 3 5 5 3 2 2 3 2 2 2 2 2 2 2 2 2 1
3 4 4 4 4 4 3 3 4 5 5 4 3 3 3 2 2 2 1 2 1 2 4 5 5 3 5 6 4 3 3 3 2 0 1 2 2 3 3 3 2 2 1
Wind_Direction
186 177 172 169 166 166 168 172 171 176 165 161 169 178 207 221 222 219 207 198 203 207 195 205 222 205 208 245 251 234 280 286 274 10 333 322 301 270 252 234 217 214 217
179 176 173 171 172 173 175 175 177 178 178 178 178 181 191 212 218 222 215 209 209 213 207 197 212 216 218 262 273 212 265 290 196 153 27 339 337 327 289 260 219 218 214
180 179 176 177 175 178 180 181 182 182 183 179 166 166 141 66 237 222 223 223 214 214 207 195 202 220 210 231 249 226 195 251 286 172 159 170 254 307 317 293 257 239 226
171 176 176 177 181 185 179 176 179 182 185 179 176 179 189 209 221 215 218 229 220 210 204 200 198 218 214 219 239 226 211 203 260 278 220 198 186 194 305 316 305 288 258
173 172 176 180 181 182 179 179 178 186 187 187 186 185 196 211 217 204 201 220 237 221 209 202 198 215 222 219 233 233 225 203 208 224 242 242 216 179 197 286 310 319 291
170 171 172 169 175 173 177 178 177 187 187 188 187 188 194 199 200 205 212 227 237 240 228 212 211 215 213 213 219 227 219 216 208 206 201 199 205 213 193 236 270 284 289
168 166 168 173 178 175 173 172 176 187 189 189 189 192 195 195 200 205 202 206 225 242 241 228 219 217 216 215 211 211 223 224 219 222 229 222 225 207 192 204 248 268 284
167 170 174 178 179 176 171 169 173 183 184 186 192 192 187 192 202 195 186 194 210 225 231 225 217 211 211 218 204 213 233 231 231 247 241 237 249 227 210 201 209 275 293
169 170 171 170 169 168 171 171 170 173 179 183 181 182 181 185 188 183 179 186 206 216 217 207 201 205 202 208 199 206 249 256 246 256 251 240 253 245 236 215 196 201 246
161 161 165 160 163 166 167 165 170 175 180 180 183 184 189 189 188 179 184 196 207 215 214 212 206 201 211 213 197 227 254 249 274 259 281 287 283 281 273 246 222 201 199
164 164 159 157 157 154 160 172 178 176 181 186 185 175 184 188 185 195 208 206 211 209 207 211 202 202 213 221 194 222 216 229 279 295 283 293 294 295 297 284 263 233 193
161 162 156 147 148 157 164 169 175 178 184 185 174 169 166 157 177 201 204 195 203 210 196 183 179 196 194 193 200 224 240 213 278 289 294 295 297 300 290 285 279 263 231
151 153 156 160 167 173 174 177 175 175 171 162 159 161 169 171 181 199 203 189 185 177 174 160 175 195 176 191 205 189 193 223 260 267 268 278 286 295 296 290 284 276 273
154 154 159 167 172 175 177 177 179 177 170 164 167 175 183 188 187 183 177 184 174 164 173 181 185 183 169 167 188 162 173 248 275 269 262 265 258 266 281 291 284 278 289
157 162 167 167 166 165 169 173 179 177 170 164 172 184 180 180 180 179 181 185 184 190 183 169 161 169 163 200 207 215 235 252 274 283 277 269 262 258 259 275 265 262 264
169 174 175 167 168 171 173 173 177 172 159 161 174 173 161 163 172 181 178 169 183 212 170 160 198 216 243 232 217 203 250 263 272 288 296 296 310 311 306 301 282 238 235
172 173 176 177 178 181 175 176 173 159 152 161 170 169 165 169 181 184 159 172 185 209 213 220 205 233 257 238 227 219 217 248 267 280 297 306 323 323 313 313 311 294 272
169 177 179 177 177 173 164 162 157 157 157 161 163 167 173 178 172 166 182 193 186 218 236 237 227 221 249 240 244 256 260 271 280 277 274 279 297 302 294 299 307 298 289
171 173 173 166 159 158 157 148 152 156 158 165 169 174 173 175 173 185 200 203 198 227 242 239 229 228 259 254 252 242 264 278 286 286 292 281 284 293 292 289 289 296 295
155 154 151 143 148 158 150 144 153 160 171 179 181 176 167 170 182 199 211 206 199 224 245 259 252 233 253 259 255 229 214 263 284 297 293 279 279 294 298 264 268 280 284
147 145 143 149 159 156 144 147 154 175 185 176 169 169 170 177 185 189 194 187 186 192 238 258 283 270 253 266 271 241 216 229 254 275 283 283 293 299 298 272 249 258 265
131 136 139 145 152 153 148 153 169 177 160 149 153 164 176 182 178 173 198 189 168 179 236 255 308 311 287 261 275 275 253 227 227 258 269 275 289 298 299 288 281 290 291
140 138 137 135 139 149 151 160 178 161 148 147 159 169 167 167 171 175 193 199 180 184 212 220 246 279 289 286 283 280 286 269 244 259 271 281 285 293 297 293 296 304 298
141 138 136 141 153 160 160 170 169 156 150 157 168 171 168 171 170 173 182 188 198 196 211 218 230 246 267 278 289 290 295 300 296 292 293 295 293 287 283 298 305 272 243
133 145 150 158 168 167 161 165 157 149 155 166 174 180 180 181 181 177 198 204 215 209 204 222 216 207 236 250 243 246 265 270 271 294 315 321 318 319 315 310 298 290 289
125 135 143 149 158 154 156 167 166 157 157 163 178 182 178 183 177 161 354 346 264 242 214 206 198 220 230 241 255 270 277 274 254 185 280 282 278 272 275 280 288 293 283
Height
1529 1531 1533 1536 1538 1540 1542 1544 1545 1547 1549 1550 1551 1552 1553 1554 1554 1555 1555 1555 1556 1556 1555 1555 1555 1555 1555 1555 1555 1555 1554 1554 1553 1553 1552 1551 1551 1550 1550 1550 1550 1550 1550
1528 1530 1532 1534 1536 1538 1540 1542 1544 1545 1547 1548 1550 1551 1552 1553 1553 1553 1554 1554 1554 1554 1554 1554 1554 1554 1554 1554 1554 1553 1553 1552 1552 1552 1550 1549 1550 1549 1549 1549 1549 1549 1548
1524 1527 1529 1531 1534 1536 1538 1540 1542 1544 1545 1547 1549 1550 1550 1551 1551 1552 1552 1552 1553 1553 1553 1552 1552 1552 1552 1552 1552 1552 1552 1551 1551 1550 1550 1549 1548 1547 1547 1547 1547 1547 1547
1521 1524 1527 1530 1532 1534 1537 1539 1540 1542 1544 1546 1547 1548 1548 1549 1549 1550 1550 1551 1551 1551 1551 1550 1550 1550 1550 1550 1550 1550 1550 1549 1549 1548 1548 1549 1548 1547 1545 1545 1545 1545 1545
1519 1521 1524 1527 1530 1532 1535 1537 1538 1540 1542 1544 1545 1546 1547 1547 1548 1548 1549 1549 1549 1549 1549 1549 1548 1548 1548 1548 1548 1548 1548 1547 1547 1546 1546 1546 1546 1545 1545 1543 1543 1543 1542
1518 1520 1523 1526 1528 1530 1532 1535 1537 1538 1540 1541 1543 1544 1545 1545 1546 1546 1546 1547 1547 1547 1547 1547 1546 1546 1546 1545 1545 1545 1545 1545 1545 1544 1544 1544 1543 1543 1543 1542 1541 1540 1540
1516 1518 1521 1524 1526 1528 1529 1532 1535 1536 1538 1539 1541 1541 1542 1543 1543 1543 1543 1544 1544 1544 1544 1544 1544 1544 1543 1543 1543 1543 1542 1542 1542 1542 1542 1541 1541 1541 1541 1540 1539 1538 1537
1514 1516 1518 1521 1523 1525 1527 1530 1532 1534 1536 1537 1538 1539 1540 1540 1540 1540 1541 1541 1542 1542 1542 1542 1542 1541 1541 1541 1541 1540 1540 1540 1540 1540 1539 1539 1539 1539 1538 1538 1537 1535 1534
1511 1513 1516 1519 1522 1524 1526 1528 1530 1532 1533 1535 1536 1537 1538 1538 1538 1538 1538 1539 1539 1540 1540 1540 1539 1539 1539 1539 1538 1538 1538 1537 1537 1537 1536 1536 1536 1536 1535 1535 1534 1534 1532
1509 1511 1514 1517 1519 1522 1524 1527 1528 1530 1531 1532 1534 1535 1535 1536 1536 1536 1536 1537 1537 1537 1537 1537 1537 1537 1536 1536 1536 1536 1535 1535 1535 1534 1534 1534 1533 1533 1532 1532 1531 1531 1530
1508 1510 1513 1515 1518 1520 1522 1525 1526 1528 1529 1530 1531 1532 1532 1533 1533 1533 1534 1534 1534 1534 1534 1534 1534 1534 1534 1534 1534 1534 1533 1533 1532 1532 1531 1531 1530 1530 1529 1529 1528 1528 1527
1507 1509 1511 1514 1517 1519 1520 1522 1524 1525 1527 1528 1529 1529 1530 1530 1531 1531 1531 1531 1531 1531 1531 1532 1532 1532 1532 1532 1531 1531 1531 1530 1530 1529 1529 1528 1528 1527 1526 1526 1525 1524 1523
1507 1510 1511 1513 1515 1516 1518 1520 1521 1523 1524 1525 1526 1527 1528 1528 1528 1528 1528 1528 1528 1528 1528 1529 1529 1529 1529 1529 1528 1528 1528 1528 1527 1526 1525 1525 1524 1524 1523 1522 1521 1520 1520
1505 1508 1510 1512 1513 1515 1516 1518 1519 1521 1522 1523 1524 1525 1525 1526 1526 1526 1526 1526 1526 1526 1526 1526 1526 1526 1526 1526 1525 1525 1524 1524 1524 1523 1522 1522 1521 1520 1520 1519 1518 1517 1516
1505 1506 1508 1510 1511 1513 1514 1516 1517 1518 1520 1521 1521 1522 1523 1524 1524 1524 1524 1524 1524 1524 1524 1524 1524 1524 1523 1523 1523 1522 1521 1521 1520 1520 1519 1518 1517 1517 1516 1515 1514 1514 1513
1503 1505 1507 1508 1510 1511 1512 1514 1515 1516 1517 1518 1519 1520 1520 1521 1522 1522 1522 1522 1522 1522 1522 1521 1521 1521 1521 1521 1520 1519 1519 1518 1517 1517 1516 1515 1514 1513 1513 1512 1511 1510 1509
1500 1502 1504 1506 1507 1509 1510 1511 1512 1513 1514 1515 1516 1517 1518 1518 1519 1520 1520 1520 1520 1520 1520 1519 1519 1519 1518 1518 1518 1517 1516 1515 1514 1513 1513 1512 1511 1510 1509 1508 1507 1506 1506
1497 1499 1501 1503 1504 1506 1508 1510 1511 1512 1512 1513 1514 1514 1515 1516 1516 1517 1517 1517 1518 1517 1517 1516 1516 1515 1515 1515 1515 1514 1513 1512 1511 1510 1509 1508 1507 1506 1505 1504 1503 1502 1502
1494 1496 1498 1499 1501 1503 1505 1507 1508 1510 1511 1511 1512 1512 1513 1513 1514 1514 1514 1514 1514 1514 1514 1513 1513 1512 1512 1511 1511 1511 1510 1509 1508 1507 1506 1505 1504 1503 1502 1501 1499 1498 1498
1492 1494 1496 1497 1499 1501 1503 1504 1506 1507 1508 1509 1509 1510 1511 1511 1511 1511 1511 1511 1511 1511 1511 1510 1509 1509 1508 1508 1507 1507 1506 1505 1504 1504 1503 1501 1500 1499 1498 1497 1496 1494 1493
1491 1492 1494 1496 1497 1499 1501 1502 1503 1505 1506 1507 1507 1508 1508 1509 1509 1509 1509 1509 1508 1508 1507 1507 1506 1505 1505 1504 1503 1503 1502 1501 1500 1500 1498 1498 1497 1496 1495 1493 1492 1491 1490
1490 1491 1493 1494 1496 1498 1499 1500 1501 1502 1503 1504 1505 1505 1506 1506 1506 1506 1506 1506 1505 1505 1504 1503 1503 1502 1501 1500 1500 1500 1499 1498 1496 1495 1494 1493 1493 1492 1491 1490 1489 1488 1487
1488 1490 1491 1492 1494 1496 1497 1497 1498 1499 1500 1501 1501 1502 1502 1502 1503 1503 1503 1502 1502 1501 1501 1500 1499 1498 1498 1497 1497 1496 1495 1494 1492 1491 1490 1490 1489 1488 1487 1486 1485 1484 1483
1487 1488 1489 1490 1491 1493 1494 1494 1495 1496 1496 1497 1498 1498 1499 1499 1499 1500 1500 1499 1499 1499 1498 1497 1496 1495 1495 1494 1493 1493 1492 1490 1489 1488 1487 1486 1485 1484 1483 1482 1481 1481 1480
1486 1487 1487 1488 1489 1490 1491 1492 1492 1493 1493 1494 1494 1494 1495 1495 1495 1496 1496 1496 1496 1496 1495 1494 1494 1492 1491 1491 1490 1489 1488 1486 1485 1484 1483 1482 1481 1481 1480 1479 1478 1477 1476
1485 1485 1485 1486 1487 1488 1489 1489 1489 1490 1490 1490 1490 1490 1491 1492 1492 1492 1492 1492 1493 1492 1492 1491 1491 1490 1489 1488 1487 1486 1485 1483 1482 1481 1479 1479 1478 1477 1476 1475 1474 1473 1473